Hourly Data Report for May 17, 2012

All times are specified in Local Standard Time (LST). Add 1 hour to adjust for Daylight Saving Time where and when it is observed.

SAULT STE MARIE A
ONTARIO

46°29'06.000" N
84°30'35.000" W
192.00 m
6057591
71260
YAM

Download Data

Hourly Data (May 2012)
Hourly Data Report for May 17, 2012
Temp Definition
°C
Dew Point Temp Definition
°C
Rel Hum Definition
%
Wind Dir Definition
10's deg

Wind Spd Definition
km/h
Visibility Definition
km
Stn Press Definition
kPa
Hmdx Definition


Wind Chill Definition


Weather Definition


TIME
00:00 Legend Double Dagger -0.2 -1.2 93 29 4 10.0 99.75   -1 LegendNANA
01:00 Legend Double Dagger -1.1 -1.4 98 18 4 10.0 99.77   -2 Mainly Clear
02:00 Legend Double Dagger -2.0 -2.1 99   0 10.0 99.78     LegendNANA
03:00 Legend Double Dagger -2.3 -2.3 100   0 10.0 99.82     LegendNANA
04:00 Legend Double Dagger -2.1 -2.2 99   0 10.0 99.87     Mainly Clear
05:00 Legend Double Dagger -3.2 -3.3 99   0 10.0 99.91     LegendNANA
06:00 Legend Double Dagger -1.0 -1.0 100 12 4 10.0 99.95   -2 LegendNANA
07:00 Legend Double Dagger 4.8 2.3 84   0 10.0 100.00     Mainly Clear
08:00 Legend Double Dagger 8.2 2.0 65 8 5 10.0 99.99     LegendNANA
09:00 Legend Double Dagger 10.9 -0.5 45 14 7 10.0 99.99     LegendNANA
10:00 Legend Double Dagger 13.3 0.1 40 22 5 10.0 99.97     Mainly Clear
11:00 Legend Double Dagger LegendMM -2.4 LegendMM 16 12 10.0 99.93     LegendNANA
12:00 Legend Double Dagger 16.6 -1.9 28 16 8 10.0 99.89     LegendNANA
13:00 Legend Double Dagger 18.1 0.8 31 21 10 10.0 99.81     Mainly Clear
14:00 Legend Double Dagger 17.8 -0.4 29 26 13 10.0 99.75     LegendNANA
15:00 Legend Double Dagger 18.4 -0.3 28 24 14 10.0 99.70     LegendNANA
16:00 Legend Double Dagger 19.4 0.6 28 19 13 10.0 99.61     Mostly Cloudy
17:00 Legend Double Dagger 18.4 -0.8 27 20 14 10.0 99.58     LegendNANA
18:00 Legend Double Dagger 17.9 0.7 31 21 11 10.0 99.58     LegendNANA
19:00 Legend Double Dagger 15.7 1.5 38 19 13 10.0 99.58     Cloudy
20:00 Legend Double Dagger 13.5 1.2 43 16 13 10.0 99.66     LegendNANA
21:00 Legend Double Dagger 11.6 -0.2 44 16 9 10.0 99.69     LegendNANA
22:00 Legend Double Dagger 8.5 4.5 76 8 8 10.0 99.68     Cloudy
23:00 Legend Double Dagger 9.1 3.3 67 11 7 10.0 99.61     Rain Showers

Notes on Data Quality.

Legend

  • E = Estimated
  • M = Missing
  • NA = Not Available
  • ‡ = Partner data that is not subject to review by the National Climate Archives
Date modified: